Location: *
(50.4714°N, 30.4489°E)
Time: 22:27:40
(UTC+00:00)

Daily predictions for brighter satellites

Satellite Brightness Start Highest point End
(mag) Time Altitude Azimuth Time Altitude Azimuth Time Altitude Azimuth
Cosmos 371 Rocket 3.4 14:23:30 10° NNW 14:28:25 87° WSW 14:33:19 10° SSE
Cosmos 2278 Rocket 2.8 14:23:42 10° NNW 14:28:53 34° NE 14:34:01 10° ESE
NOSS 2-2 (D) 3.5 14:25:40 10° SW 14:29:20 72° NW 14:33:42 10° NE
ERBS 2.5 14:26:39 10° WNW 14:29:59 77° SW 14:33:20 10° SE
Okean-O 3.8 14:26:38 10° ESE 14:30:00 22° ENE 14:33:23 10° N
Cosmos 1346 Rocket 2.9 14:27:04 10° N 14:30:56 51° ENE 14:34:50 10° SSE
Cosmos 1315 Rocket 3.5 14:27:23 10° SSE 14:31:00 34° E 14:34:41 10° NNE
Cosmos 1606 3.1 14:32:06 10° SSW 14:35:50 65° WNW 14:39:39 10° N
ASTEX 1 4.4 14:31:23 10° N 14:36:12 51° WNW 14:40:57 10° SSW
Envisat 3.9 14:32:27 10° ESE 14:36:34 26° ENE 14:40:42 10° N
Cosmos 2360 Rocket 2.3 14:32:22 10° SSW 14:38:02 84° ESE 14:43:46 10° NNE
Cosmos 1331 Rocket 4.2 14:33:29 10° NNW 14:38:45 79° WSW 14:44:00 10° SSE
Cosmos 1515 Rocket 4.5 14:35:44 10° SSW 14:39:56 50° WNW 14:44:11 10° N
NOAA 6 4.2 14:34:49 10° SSE 14:39:58 81° WSW 14:45:08 10° NNW
BREEZE-M R/B 3.7 14:33:01 10° WSW 14:40:19 64° SSE 14:43:55 10° E
Cosmos 1707 Rocket 4.2 14:37:19 10° SSE 14:41:25 38° E 14:45:35 10° NNE
Cosmos 1400 Rocket 3.1 14:37:43 10° SSW 14:41:49 75° WNW 14:45:54 10° N
Cosmos 2369 Rocket 4.1 14:40:57 10° N 14:42:42 11° NNE 14:44:27 10° NE
Cosmos 1980 Rocket 4.0 14:40:33 10° W 14:44:57 22° NW 14:49:21 10° NNE
Meteor 1-11 Rocket 4.2 14:41:46 10° N 14:47:24 41° ENE 14:53:00 10° SE
Cosmos 2333 Rocket 2.8 14:43:20 10° S 14:48:38 40° ESE 14:54:00 10° NE
Cosmos 1689 Rocket 2.2 14:45:57 10° N 14:49:01 78° WNW 14:52:02 10° SSW
Radarsat Rocket 4.2 14:43:31 10° SSE 14:49:45 79° WSW 14:55:38 10° NNW
ATLAS 3B R/B 3.1 14:46:13 10° NW 14:52:52 69° SW 14:59:41 10° SSE
STARLINK-67 3.0 14:50:48 10° SW 14:53:29 51° SSE 14:55:43 14° ENE
USA 267 3.9 14:47:14 10° SE 14:53:42 61° SW 15:00:11 10° WNW
NOSS 3-4 (A) 3.5 14:48:33 10° SSW 14:54:31 68° SE 15:00:51 10° NE
NOSS 3-4 (C) 3.5 14:48:39 10° SSW 14:54:37 68° SE 15:00:57 10° NE
Cosmos 2237 Rocket 3.5 14:54:51 10° SE 14:58:51 20° E 15:02:05 13° ENE
COSMO-SKYMED 1 4.2 14:57:43 12° ENE 14:59:35 16° E 15:02:13 10° SE
RESURS DK-1 3.3 14:58:52 10° S 15:02:29 30° ESE 15:05:20 14° NE
Cosmos 2322 Rocket 3.3 14:57:21 10° WSW 15:02:39 41° NW 15:08:00 10° NNE
Shenzhou-11 Module 4.4 15:05:22 10° SSW 15:06:53 14° SSE 15:08:24 10° SE
NOSS 2-2 (C) 4.3 15:03:35 10° WSW 15:07:08 40° NW 15:11:09 11° NE
ISS -3.7 15:04:29 10° WNW 15:07:50 78° SSW 15:11:08 10° ESE
SL-16 R/B 3.5 15:03:36 10° WSW 15:08:44 34° NW 15:13:55 10° NNE
COBE Rocket 4.1 15:05:17 10° NNE 15:09:46 46° E 15:14:15 10° S
Cosmos 1812 3.5 15:07:45 10° SSE 15:11:12 32° E 15:14:20 12° NNE
STARLINK-46 4.3 15:09:08 10° SSW 15:11:15 21° SE 15:12:25 16° ESE
CZ-4B R/B 3.5 15:08:49 10° N 15:11:51 27° WNW 15:14:51 10° SW
Feng Yun 1-1 Rocket 4.1 15:06:33 10° SSE 15:11:57 83° ENE 15:17:23 10° NNW
YAOGAN 1 3.7 15:08:50 10° ESE 15:12:07 21° ENE 15:15:24 10° NNE
Cosmos 2219 Rocket 2.3 15:10:15 10° SSW 15:15:44 61° ESE 15:20:59 12° NE
NOAA 12 4.1 15:11:04 10° SSE 15:16:16 59° ENE 15:21:29 10° N
CORIOLIS 4.1 15:13:25 10° SSE 15:18:52 79° ENE 15:24:21 10° NNW
Cosmos 1844 Rocket 4.5 15:14:39 10° NW 15:19:41 35° WSW 15:24:42 10° S
Ariane Rocket 4.5 15:20:14 16° NE 15:20:14 16° NE 15:23:06 10° NNE
Cosmos 494 Rocket 4.5 15:17:19 10° SW 15:22:32 63° WNW 15:27:47 10° NNE
Cosmos 1733 Rocket 2.9 15:20:03 10° N 15:24:27 76° E 15:28:50 10° SSE
Cosmos 1269 Rocket 4.4 15:22:14 10° SSW 15:27:31 68° WNW 15:32:50 10° NNE
Cosmos 1536 3.0 15:24:05 10° N 15:28:00 46° ENE 15:31:52 10° SSE
PSLV R/B 4.1 15:24:08 10° NNE 15:28:20 76° WNW 15:32:26 10° SSW
Cosmos 1980 4.3 15:23:46 10° S 15:28:48 34° ESE 15:31:53 20° NE
SMAP 3.3 15:24:16 10° S 15:28:55 73° WSW 15:33:36 10° NNW
Cosmos 2297 4.4 15:23:54 10° NNW 15:29:05 33° NE 15:32:45 17° ESE
Cosmos 1500 3.0 15:28:23 10° N 15:32:12 80° E 15:35:57 10° SSE
ATLAS 2AS CENTAUR R/B 3.3 15:24:26 10° SW 15:32:26 69° NW 15:39:19 15° NE
Cosmos 1943 Rocket 3.5 15:29:54 10° N 15:33:53 19° NE 15:34:40 19° NE
CZ-4 R/B 1.8 15:31:34 10° SE 15:35:11 37° ENE 15:38:46 10° N
H-2A R/B 3.4 15:36:54 10° S 15:40:32 55° W 15:44:11 10° NNW
COSMOS 2428 2.7 15:35:20 10° SSW 15:41:01 88° ESE 15:45:47 15° NNE
CSL-04 Rocket 3.9 15:36:23 10° SE 15:41:20 43° ENE 15:46:19 10° N
Meteor 1-5 Rocket 4.4 15:36:29 10° NNW 15:42:06 72° W 15:47:30 10° S
Lacrosse 5 rocket 1.9 15:40:53 10° SSW 15:44:54 42° SE 15:46:07 33° E
NOSS 7 (D) 3.9 15:44:28 10° NW 15:47:23 69° NE 15:48:01 49° ESE
SKYMED 2 3.9 15:46:24 28° NE 15:48:09 42° E 15:52:16 10° S
Cosmos 1092 Rocket 4.2 15:42:42 10° SSE 15:48:44 50° E 15:54:45 10° NNE
YAOGAN 6 2.4 15:45:45 10° SSE 15:49:14 61° ENE 15:52:47 10° N
NOSS 0 Rocket 4.0 15:43:30 10° S 15:49:34 57° ESE 15:53:28 23° NE
Cosmos 292 Rocket 3.8 15:46:07 10° NNW 15:50:57 57° ENE 15:55:44 10° SE
SeaSat 1 3.4 15:51:27 26° NE 15:51:34 26° NE 15:55:38 10° NNW
Cosmos 1782 Rocket 4.0 15:47:40 10° N 15:51:35 36° ENE 15:51:35 36° ENE
Cosmos 2251 Rocket 3.5 15:47:08 10° S 15:52:24 65° ESE 15:55:43 23° NNE
CSL-04 Debris 4.2 15:48:12 10° SE 15:53:29 54° ENE 15:58:47 10° N
SL-4 R/B 1.9 15:50:36 10° WSW 15:54:21 67° SSE 15:55:27 44° E
FengYun 1-2 T 4.1 15:51:39 10° SSE 15:57:07 80° ENE 16:02:39 10° NNW
COSMOS 2455 4.4 15:52:12 10° W 15:57:18 28° NNW 16:01:39 13° NNE
Cosmos 2242 Rocket 3.6 15:55:13 10° S 15:59:44 67° E 16:02:42 21° NNE
Cosmos 921 Rocket 3.7 15:56:24 10° N 15:59:34 34° NE 15:59:34 34° NE
USA 215 3.5 15:56:48 26° NE 16:00:41 63° NNW 16:07:07 10° W
CZ-4 R/B 4.3 15:57:16 10° SSE 16:01:25 77° ENE 16:05:37 10° N
Cosmos 1862 Rocket 3.6 15:58:40 10° SSW 16:03:00 76° W 16:07:06 12° N
Cosmos 1703 Rocket 3.8 16:01:18 10° SSE 16:05:31 45° E 16:05:31 45° E
Okean-O 3.4 16:01:49 10° S 16:06:09 54° W 16:10:32 10° NNW
Genesis I 3.6 16:06:44 10° NW 16:10:05 47° NNE 16:10:05 47° NNE
NOAA 11 4.2 16:07:29 10° SSE 16:12:49 58° ENE 16:18:12 10° N
Cosmos 2278 Rocket 3.0 16:07:43 10° NW 16:13:13 53° WSW 16:18:42 10° S
Envisat 3.7 16:10:18 10° S 16:15:17 56° W 16:20:19 10° NNW
S3M 4.4 16:10:13 10° N 16:15:26 37° ENE 16:15:26 37° ENE
Cosmos 1666 2.7 16:13:12 10° NNW 16:16:58 77° W 16:20:41 10° S
Cosmos 1867 3.9 16:14:08 10° NW 16:19:23 44° NE 16:19:38 44° NE
Cosmos 2360 Rocket 4.0 16:18:08 10° W 16:22:46 25° NW 16:26:57 12° N
Cosmos 2369 Rocket 3.3 16:23:45 10° NNW 16:27:19 27° NNE 16:27:19 27° NNE
Nadezhda 4 Rocket 4.5 16:23:13 10° SSW 16:29:28 61° WNW 16:35:45 10° N
SL-16 R/B 3.1 16:24:23 10° S 16:28:00 32° SE 16:28:00 32° SE
Cosmos 1553 Rocket 4.0 16:24:50 10° N 16:31:07 60° ENE 16:37:25 10° SSE
Cosmos 2333 Rocket 3.2 16:27:26 10° WSW 16:32:54 44° NW 16:36:30 21° NNE
NOSS 3-1 (C) 4.4 16:27:43 10° NW 16:34:18 42° NNE 16:35:29 39° NE
Cosmos 1908 Rocket 4.3 16:31:08 10° NNW 16:35:26 51° W 16:39:41 10° S
Cosmos 1428 Rocket 4.3 16:29:40 10° S 16:35:46 68° E 16:39:12 28° NNE
COSMO-SKYMED 1 2.8 16:34:56 43° N 16:36:13 68° WNW 16:40:31 10° SSW
RESURS DK-1 3.6 16:36:37 10° WSW 16:40:28 36° NW 16:41:15 33° NNW
USA 229 DEB 4.2 16:34:37 10° NW 16:41:21 43° NNE 16:42:02 42° NE
USA 229 4.2 16:34:43 10° NW 16:41:27 43° NNE 16:42:07 42° NE
Cosmos 2237 Rocket 2.2 16:36:33 10° SSW 16:42:16 80° WNW 16:43:57 48° NNE
ISS -1.5 16:41:34 10° W 16:44:04 22° SW 16:44:04 22° SW
NOSS 3-4 (A) 4.4 16:40:04 10° W 16:45:50 40° NNW 16:48:18 30° NNE
NOSS 3-4 (C) 4.4 16:40:09 10° W 16:45:56 41° NNW 16:48:24 30° NNE
NOSS 3-1 (A) 4.5 16:40:01 10° NW 16:46:26 38° NNE 16:46:59 38° NE
YAOGAN 1 3.3 16:43:41 10° S 16:47:54 52° W 16:52:10 10° NNW
USA 116 4.5 16:47:41 46° N 16:49:22 81° WNW 16:54:37 10° SSW
Exosat Rocket 4.4 16:46:19 10° SW 16:51:19 46° NW 16:53:10 32° N
Cosmos 2026 Rocket 3.9 16:46:00 10° S 16:52:05 84° W 16:56:14 22° N
Cosmos 489 Rocket 4.3 16:47:46 10° NNW 16:54:10 71° ENE 16:54:15 71° ENE
Ariane Rocket 4.0 17:00:26 36° NNW 17:00:26 36° NNW 17:03:22 10° NNW
Cosmos 2219 Rocket 3.7 16:55:08 10° WSW 17:00:05 31° NW 17:02:43 22° N
Cosmos 1417 Rocket 4.3 16:55:43 10° N 17:01:52 90° NW 17:03:49 47° S
Okean 1-7 4.5 17:02:43 10° SSW 17:05:17 33° SW 17:05:17 33° SW
CZ-4 R/B 3.7 17:07:12 10° SSW 17:10:20 23° W 17:13:28 10° NW
Cosmos 1980 4.4 17:07:17 10° SW 17:12:44 49° NW 17:13:45 44° NNW
Cosmos 2297 4.2 17:07:58 10° NW 17:13:34 56° WSW 17:14:46 46° SSW
Cosmos 1943 Rocket 3.3 17:13:04 10° NNW 17:16:12 33° NNW 17:16:12 33° NNW
Lacrosse 5 rocket 3.6 17:19:58 10° W 17:21:46 23° W 17:21:46 23° W
ATLAS 2AS CENTAUR R/B 4.0 17:17:34 10° W 17:24:49 35° NNW 17:26:45 31° N
SeaSat 1 4.0 17:31:15 29° NW 17:31:15 29° NW 17:33:41 10° NNW
USA 215 3.9 17:44:09 47° NNW 17:44:09 47° NNW 17:49:30 10° WNW
Cosmos 2344 4.2 17:49:36 10° NW 17:58:55 81° NE 17:59:08 81° ENE
Cosmos 2369 Rocket 4.4 18:07:34 10° NW 18:09:07 19° NW 18:09:07 19° NW
SL-16 R/B 4.3 18:08:09 10° SW 18:09:56 20° WSW 18:09:56 20° WSW
Cosmos 2237 Rocket 4.5 18:22:58 10° W 18:25:48 19° WNW 18:25:48 19° WNW
